Location: Unspecified
(51.0950°N, 12.9690°E)
Time: 00:42:38
(UTC+00:00)

First-Move - Pass Details

Date: 30 April 2024
Orbit: 538 x 600 km, 97.7° (Epoch: 20 May)

Event Time Altitude Azimuth Distance (km) Brightness Sun altitude
Rises 02:38:49 0° 14° (NNE) 2,876 ? -9.3°
Reaches altitude 10° 02:41:01 10° 16° (NNE) 1,968 ? -9.1°
Maximum altitude 02:45:19 77° 103° (ESE) 627 ? -8.5°
Drops below altitude 10° 02:49:33 10° 190° (S) 1,941 ? -8.0°
Enters shadow 02:51:20 - 192° (SSW) 2,680 ? -7.8°
